Zurück zum Katalog

YAOGAN-42 02

AktivMilitärVLEO
NORAD 59557·PAYLOAD·🇨🇳 China

Gestartet Apr 20, 2024 von Xichang Satellite Launch Center

Loading…

Nächste Überflüge (nächste 24 Stunden)

TLE

AktuellSource: Space-Track

Epoche: Sep 14, 2026, 21:54 UTC

1 59557U 24075A   26257.91260424  .00008397  00000-0  34826-3 0  9992
2 59557  35.0006  65.3128 0005631 264.1829  95.8244 15.23125662133775

Verfolge YAOGAN-42 02 in Echtzeit mit AllMySat

Download on the App Store